EW5495 Weather Reports


Display with metric or nautical units.
time (UTC)temp
F
wind
direction
speed
MPH
gust
MPH
rain 1hr
in
rain 24hr
in
rain mn
in
humidity
%
barometer
mb
20190620210101 60 256 2.0 4.0 0.00 0.00 0.00 74 1018.5
20190620205202 60 244 3.0 9.0 0.00 0.00 0.00 73 1018.3
20190620204301 60 249 3.0 8.0 0.00 0.00 0.00 73 1018.3
20190620203402 60 243 2.0 5.0 0.00 0.00 0.00 73 1018.2
20190620202501 61 243 2.0 5.0 0.00 0.00 0.00 73 1018.2
20190620201602 61 242 3.0 9.0 0.00 0.00 0.00 73 1018.2
20190620200701 61 247 2.0 5.0 0.00 0.00 0.00 75 1018.2
20190620195802 61 245 3.0 7.0 0.00 0.00 0.00 76 1018.2
20190620194901 61 243 3.0 6.0 0.00 0.00 0.00 77 1018.2
20190620194001 61 246 3.0 7.0 0.00 0.00 0.00 78 1018.0
20190620193101 61 239 2.0 6.0 0.00 0.00 0.00 80 1018.0
20190620192201 61 239 2.0 8.0 0.00 0.00 0.00 80 1018.0
20190620191301 61 255 3.0 7.0 0.00 0.00 0.00 80 1017.9
20190620190402 61 264 3.0 6.0 0.00 0.00 0.00 81 1017.9
20190620185502 60 255 2.0 5.0 0.00 0.00 0.00 82 1017.9
20190620184602 60 239 1.0 4.0 0.00 0.00 0.00 83 1017.9
20190620183702 60 0 0.0 3.0 0.00 0.00 0.00 82 1018.0
20190620182801 61 225 1.0 3.0 0.00 0.00 0.00 82 1018.0
20190620181901 61 228 1.0 3.0 0.00 0.00 0.00 81 1018.0
20190620181002 61 0 0.0 4.0 0.00 0.00 0.00 81 1018.1
20190620180102 61 0 0.0 2.0 0.00 0.00 0.00 80 1018.1
20190620175202 61 0 0.0 2.0 0.00 0.00 0.00 80 1018.1
20190620174301 61 106 1.0 4.0 0.00 0.00 0.00 80 1018.2
20190620173401 62 212 1.0 4.0 0.00 0.00 0.00 80 1018.3
20190620172502 62 0 0.0 2.0 0.00 0.00 0.00 80 1018.3
20190620171601 62 250 1.0 2.0 0.00 0.00 0.00 79 1018.3
20190620170701 62 250 1.0 2.0 0.00 0.00 0.00 80 1018.3
20190620165802 62 0 0.0 4.0 0.00 0.00 0.00 80 1018.3
20190620164902 62 250 1.0 2.0 0.00 0.00 0.00 80 1018.3
20190620164002 62 249 2.0 3.0 0.00 0.00 0.00 81 1018.4
20190620163102 62 250 1.0 2.0 0.00 0.00 0.00 81 1018.4
20190620162202 62 250 1.0 2.0 0.00 0.00 0.00 81 1018.4
20190620161302 62 249 1.0 2.0 0.00 0.00 0.00 81 1018.5
20190620160402 62 249 1.0 3.0 0.00 0.00 0.00 81 1018.6
20190620155502 62 249 1.0 2.0 0.00 0.00 0.00 82 1018.6
20190620154602 62 250 1.0 3.0 0.00 0.00 0.00 82 1018.6
20190620153702 62 250 1.0 2.0 0.00 0.00 0.00 83 1018.7
20190620152802 62 0 0.0 2.0 0.00 0.00 0.00 83 1018.8
20190620151902 62 250 1.0 2.0 0.00 0.00 0.00 83 1018.8
20190620151002 62 249 1.0 3.0 0.00 0.00 0.00 83 1018.8
20190620150102 62 246 1.0 4.0 0.00 0.00 0.00 84 1018.9
20190620145202 62 246 1.0 2.0 0.00 0.00 0.00 85 1018.8
20190620144302 62 0 0.0 2.0 0.00 0.00 0.00 85 1018.9
20190620143402 62 0 0.0 2.0 0.00 0.00 0.00 85 1019.0
20190620142502 62 239 1.0 3.0 0.00 0.00 0.00 85 1019.0
20190620141602 62 233 1.0 2.0 0.00 0.00 0.00 85 1019.2
20190620140702 62 234 1.0 2.0 0.00 0.00 0.00 85 1019.3
20190620135802 62 233 1.0 2.0 0.00 0.00 0.00 84 1019.4
20190620134902 62 0 0.0 2.0 0.00 0.00 0.00 84 1019.5
20190620134002 62 0 0.0 1.0 0.00 0.00 0.00 84 1019.5
20190620133102 62 0 0.0 2.0 0.00 0.00 0.00 84 1019.5
20190620132202 62 233 1.0 2.0 0.00 0.00 0.00 84 1019.5
20190620131302 62 0 0.0 2.0 0.00 0.00 0.00 84 1019.5
20190620130402 62 233 1.0 2.0 0.00 0.00 0.00 84 1019.6
20190620125502 62 233 1.0 2.0 0.00 0.00 0.00 84 1019.7
20190620124602 62 233 1.0 2.0 0.00 0.00 0.00 85 1019.7
20190620123702 62 233 1.0 2.0 0.00 0.00 0.00 85 1019.8
20190620122802 62 0 0.0 2.0 0.00 0.00 0.00 84 1019.8
20190620121902 62 0 0.0 3.0 0.00 0.00 0.00 84 1020.0
20190620121002 62 0 0.0 1.0 0.00 0.00 0.00 84 1019.9
20190620120102 62 0 0.0 1.0 0.00 0.00 0.00 83 1019.9
20190620115202 62 233 1.0 2.0 0.00 0.00 0.00 83 1020.0
20190620114302 62 0 0.0 3.0 0.00 0.00 0.00 83 1019.9
20190620113402 63 0 0.0 1.0 0.00 0.00 0.00 83 1020.0
20190620112502 63 233 1.0 2.0 0.00 0.00 0.00 83 1020.0
20190620111602 63 141 1.0 3.0 0.00 0.00 0.00 83 1020.1
20190620110703 63 91 1.0 2.0 0.00 0.00 0.00 83 1020.1
20190620105802 63 0 0.0 2.0 0.00 0.00 0.00 83 1020.1
20190620104903 63 91 1.0 2.0 0.00 0.00 0.00 82 1020.1
20190620104002 64 90 1.0 2.0 0.00 0.00 0.00 81 1020.2
20190620103102 64 0 0.0 2.0 0.00 0.00 0.00 81 1020.3
20190620102202 64 90 1.0 2.0 0.00 0.00 0.00 80 1020.3
20190620101302 64 90 1.0 2.0 0.00 0.00 0.00 79 1020.4
20190620100402 64 90 1.0 2.0 0.00 0.00 0.00 77 1020.4
20190620095502 65 0 0.0 1.0 0.00 0.00 0.00 75 1020.4
20190620094602 65 0 0.0 1.0 0.00 0.00 0.00 74 1020.3
20190620093702 65 90 1.0 2.0 0.00 0.00 0.00 74 1020.4
20190620092802 65 0 0.0 2.0 0.00 0.00 0.00 74 1020.3
20190620091902 65 90 1.0 2.0 0.00 0.00 0.00 73 1020.3
20190620091002 65 91 1.0 2.0 0.00 0.00 0.00 73 1020.2
20190620090102 65 90 1.0 2.0 0.00 0.00 0.00 72 1020.1
20190620085202 65 90 1.0 3.0 0.00 0.00 0.00 73 1020.1
20190620084302 65 117 2.0 3.0 0.00 0.00 0.00 72 1020.0
20190620083402 65 66 1.0 3.0 0.00 0.00 0.00 73 1020.0
20190620082502 65 0 0.0 0.0 0.00 0.00 0.00 74 1019.9
20190620081602 65 0 0.0 0.0 0.00 0.00 0.00 74 1019.8
20190620080702 65 0 0.0 0.0 0.00 0.00 0.00 72 1019.7
20190620075802 65 0 0.0 0.0 0.00 0.00 0.00 72 1019.6
20190620074902 65 0 0.0 0.0 0.00 0.00 0.00 71 1019.6
20190620074002 66 0 0.0 0.0 0.00 0.00 0.00 70 1019.4
20190620073102 66 0 0.0 1.0 0.00 0.00 0.00 69 1019.3
20190620072202 66 0 0.0 1.0 0.00 0.00 0.00 69 1019.1
20190620071302 67 0 0.0 2.0 0.00 0.00 0.00 67 1019.0
20190620070402 67 0 0.0 2.0 0.00 0.00 0.00 66 1019.0
20190620065502 67 0 0.0 2.0 0.00 0.00 0.00 65 1018.9
20190620064602 67 0 0.0 2.0 0.00 0.00 0.00 64 1019.0
20190620063702 67 0 0.0 1.0 0.00 0.00 0.00 63 1018.9
20190620062802 68 0 0.0 1.0 0.00 0.00 0.00 63 1018.9
20190620061902 68 0 0.0 2.0 0.00 0.00 0.00 62 1019.0
20190620061002 68 0 0.0 1.0 0.00 0.00 0.00 62 1019.0
20190620060103 68 0 0.0 2.0 0.00 0.00 0.00 61 1019.0
20190620055202 68 0 0.0 1.0 0.00 0.00 0.00 60 1018.9
20190620054302 68 0 0.0 2.0 0.00 0.00 0.00 60 1018.9
20190620053402 68 181 1.0 2.0 0.00 0.00 0.00 59 1018.8
20190620052502 68 0 0.0 3.0 0.00 0.00 0.00 58 1018.9
20190620051602 68 121 1.0 3.0 0.00 0.00 0.00 57 1018.7
20190620050702 68 118 1.0 4.0 0.00 0.00 0.00 57 1018.7
20190620045802 68 139 1.0 4.0 0.00 0.00 0.00 59 1018.7
20190620044902 68 134 2.0 4.0 0.00 0.00 0.00 57 1018.7
20190620044002 68 104 2.0 5.0 0.00 0.00 0.00 58 1018.7
20190620043103 68 92 2.0 4.0 0.00 0.00 0.00 58 1018.7
20190620042203 68 107 2.0 4.0 0.00 0.00 0.00 58 1018.9
20190620041303 69 105 2.0 5.0 0.00 0.00 0.00 58 1018.8
20190620040402 69 144 2.0 7.0 0.00 0.00 0.00 56 1018.9
20190620035502 69 160 2.0 5.0 0.00 0.00 0.00 57 1018.9
20190620034603 69 154 2.0 7.0 0.00 0.00 0.00 56 1019.0
20190620033702 69 166 3.0 6.0 0.00 0.00 0.00 57 1019.1
20190620032803 69 164 3.0 7.0 0.00 0.00 0.00 55 1019.1
20190620031903 69 137 3.0 8.0 0.00 0.00 0.00 55 1019.1
20190620031003 69 139 2.0 8.0 0.00 0.00 0.00 57 1019.3
20190620030103 69 158 3.0 10.0 0.00 0.00 0.00 57 1019.5
20190620025202 69 142 3.0 8.0 0.00 0.00 0.00 57 1019.6
20190620024303 69 175 3.0 7.0 0.00 0.00 0.00 56 1019.6
20190620023403 69 178 3.0 10.0 0.00 0.00 0.00 58 1019.8
20190620022503 69 191 3.0 6.0 0.00 0.00 0.00 58 1019.9
20190620021603 69 160 5.0 13.0 0.00 0.00 0.00 57 1020.1
20190620020703 69 171 4.0 9.0 0.00 0.00 0.00 59 1020.0
20190620015803 68 173 3.0 8.0 0.00 0.00 0.00 60 1020.2
20190620014903 67 205 2.0 7.0 0.00 0.00 0.00 60 1020.6
20190620014003 68 229 2.0 5.0 0.00 0.00 0.00 61 1020.8
20190620013103 68 208 3.0 5.0 0.00 0.00 0.00 60 1020.9
20190620012203 67 204 3.0 7.0 0.00 0.00 0.00 62 1021.0
20190620011303 66 270 2.0 4.0 0.00 0.00 0.00 66 1021.1
20190620010403 65 273 3.0 6.0 0.00 0.00 0.00 68 1021.3
20190620005503 65 253 3.0 8.0 0.00 0.00 0.00 67 1021.4
20190620004603 65 256 3.0 8.0 0.00 0.00 0.00 69 1021.6
20190620003703 64 255 3.0 6.0 0.00 0.00 0.00 69 1021.5
20190620002803 64 232 2.0 6.0 0.00 0.00 0.00 70 1021.6
20190620001903 64 239 2.0 5.0 0.00 0.00 0.00 70 1021.5
20190620001003 63 232 2.0 8.0 0.00 0.00 0.00 71 1021.6
20190620000103 63 237 3.0 10.0 0.00 0.00 0.00 72 1021.7
20190619235203 62 225 3.0 7.0 0.00 0.00 0.00 72 1021.6
20190619234303 62 229 3.0 10.0 0.00 0.00 0.00 71 1021.6
20190619233403 62 249 4.0 10.0 0.00 0.00 0.00 72 1021.6
20190619232503 61 252 4.0 9.0 0.00 0.00 0.00 74 1021.6
20190619231603 61 268 5.0 9.0 0.00 0.00 0.00 74 1021.7
20190619230703 61 228 3.0 8.0 0.00 0.00 0.00 75 1021.6
20190619225803 60 232 2.0 5.0 0.00 0.00 0.00 78 1021.6
20190619224903 60 243 3.0 5.0 0.00 0.00 0.00 78 1021.7
20190619224003 60 231 2.0 5.0 0.00 0.00 0.00 77 1021.6
20190619223103 60 235 3.0 7.0 0.00 0.00 0.00 78 1021.6
20190619222203 60 245 2.0 9.0 0.00 0.00 0.00 79 1021.6
20190619221303 59 225 2.0 6.0 0.00 0.00 0.00 80 1021.4
20190619220403 59 242 2.0 6.0 0.00 0.00 0.00 82 1021.3
20190619215503 58 232 3.0 5.0 0.00 0.00 0.00 83 1021.1
20190619214603 58 249 2.0 5.0 0.00 0.00 0.00 84 1021.2
20190619213703 58 228 3.0 6.0 0.00 0.00 0.00 85 1021.1
20190619212803 57 247 3.0 7.0 0.00 0.00 0.00 87 1021.0
20190619211903 57 219 2.0 5.0 0.00 0.00 0.00 88 1021.0
20190619211003 57 235 1.0 4.0 0.00 0.00 0.00 89 1020.9